owner,sensor,date,latitude,longitude,vertical_datum,sea_water_practical_salinity,qcFlag 
SCCF RECON,ioos:station:SCCF:12:1,2010-03-01T00:00:00Z,26.4966,-82.1479,1.731,33.74,1111122 
SCCF RECON,ioos:station:SCCF:12:1,2010-03-01T01:00:00Z,26.4966,-82.1479,1.756,33.77,1111122 
SCCF RECON,ioos:station:SCCF:12:1,2010-03-01T02:00:00Z,26.4966,-82.1479,1.87,33.59,1111122 
SCCF RECON,ioos:station:SCCF:12:1,2010-03-01T03:00:00Z,26.4966,-82.1479,2.05,33.52,1111122 
SCCF RECON,ioos:station:SCCF:12:1,2010-03-01T04:00:00Z,26.4966,-82.1479,2.21,33.56,1111122 
SCCF RECON,ioos:station:SCCF:12:1,2010-03-01T05:00:00Z,26.4966,-82.1479,2.34,33.52,1111122 
SCCF RECON,ioos:station:SCCF:12:1,2010-03-01T06:00:00Z,26.4966,-82.1479,2.42,33.6,1111122 
SCCF RECON,ioos:station:SCCF:12:1,2010-03-01T07:00:00Z,26.4966,-82.1479,2.405,33.73,1111122 
SCCF RECON,ioos:station:SCCF:12:1,2010-03-01T08:00:00Z,26.4966,-82.1479,2.275,33.78,1111122 
SCCF RECON,ioos:station:SCCF:12:1,2010-03-01T09:00:00Z,26.4966,-82.1479,2.11,33.75,1111122 
SCCF RECON,ioos:station:SCCF:12:1,2010-03-01T10:00:00Z,26.4966,-82.1479,1.96,33.78,1111122 
SCCF RECON,ioos:station:SCCF:12:1,2010-03-01T11:00:00Z,26.4966,-82.1479,1.848,33.76,1111122 
SCCF RECON,ioos:station:SCCF:12:1,2010-03-01T12:00:00Z,26.4966,-82.1479,1.755,33.78,1111122 
SCCF RECON,ioos:station:SCCF:12:1,2010-03-01T13:00:00Z,26.4966,-82.1479,1.7,33.65,1111122 
SCCF RECON,ioos:station:SCCF:12:1,2010-03-01T14:00:00Z,26.4966,-82.1479,1.74,33.7,1111122 
SCCF RECON,ioos:station:SCCF:12:1,2010-03-01T15:00:00Z,26.4966,-82.1479,1.903,33.64,1111122 
SCCF RECON,ioos:station:SCCF:12:1,2010-03-01T16:00:00Z,26.4966,-82.1479,2.079,33.64,1111122 
SCCF RECON,ioos:station:SCCF:12:1,2010-03-01T17:00:00Z,26.4966,-82.1479,2.191,33.64,1111122 
SCCF RECON,ioos:station:SCCF:12:1,2010-03-01T18:00:00Z,26.4966,-82.1479,2.26,33.75,1111122 
SCCF RECON,ioos:station:SCCF:12:1,2010-03-01T19:00:00Z,26.4966,-82.1479,2.264,33.69,1111122 
SCCF RECON,ioos:station:SCCF:12:1,2010-03-01T20:00:00Z,26.4966,-82.1479,2.194,33.71,1111122 
SCCF RECON,ioos:station:SCCF:12:1,2010-03-01T21:00:00Z,26.4966,-82.1479,2.061,33.75,1111122 
SCCF RECON,ioos:station:SCCF:12:1,2010-03-01T22:00:00Z,26.4966,-82.1479,1.92,33.76,1111122 
SCCF RECON,ioos:station:SCCF:12:1,2010-03-01T23:00:00Z,26.4966,-82.1479,1.81,33.76,1111122 
SCCF RECON,ioos:station:SCCF:12:1,2010-03-02T00:00:00Z,26.4966,-82.1479,1.71,33.76,1111122 
SCCF RECON,ioos:station:SCCF:12:1,2010-03-02T01:00:00Z,26.4966,-82.1479,1.66,33.76,1111122 
SCCF RECON,ioos:station:SCCF:12:1,2010-03-02T02:00:00Z,26.4966,-82.1479,1.69,33.71,1111122 
SCCF RECON,ioos:station:SCCF:12:1,2010-03-02T03:00:00Z,26.4966,-82.1479,1.85,33.72,1111122 
SCCF RECON,ioos:station:SCCF:12:1,2010-03-02T04:00:00Z,26.4966,-82.1479,2.04,33.75,1111122 
SCCF RECON,ioos:station:SCCF:12:1,2010-03-02T05:00:00Z,26.4966,-82.1479,2.2,33.74,1111122 
SCCF RECON,ioos:station:SCCF:12:1,2010-03-02T06:00:00Z,26.4966,-82.1479,2.314,33.73,1111122 
SCCF RECON,ioos:station:SCCF:12:1,2010-03-02T07:00:00Z,26.4966,-82.1479,2.36,33.73,1111122 
SCCF RECON,ioos:station:SCCF:12:1,2010-03-02T08:00:00Z,26.4966,-82.1479,2.32,33.77,1111122 
SCCF RECON,ioos:station:SCCF:12:1,2010-03-02T09:00:00Z,26.4966,-82.1479,2.19,33.76,1111122 
SCCF RECON,ioos:station:SCCF:12:1,2010-03-02T10:00:00Z,26.4966,-82.1479,2.021,33.79,1111122 
SCCF RECON,ioos:station:SCCF:12:1,2010-03-02T11:00:00Z,26.4966,-82.1479,1.886,33.78,1111122 
SCCF RECON,ioos:station:SCCF:12:1,2010-03-02T12:00:00Z,26.4966,-82.1479,1.817,33.78,1111122 
SCCF RECON,ioos:station:SCCF:12:1,2010-03-02T13:00:00Z,26.4966,-82.1479,1.845,33.78,1111122 
SCCF RECON,ioos:station:SCCF:12:1,2010-03-02T14:00:00Z,26.4966,-82.1479,1.946,33.69,1111122 
SCCF RECON,ioos:station:SCCF:12:1,2010-03-02T15:00:00Z,26.4966,-82.1479,2.15,33.69,1111122 
SCCF RECON,ioos:station:SCCF:12:1,2010-03-02T16:00:00Z,26.4966,-82.1479,2.27,33.69,1111122 
SCCF RECON,ioos:station:SCCF:12:1,2010-03-02T17:00:00Z,26.4966,-82.1479,2.39,33.65,1111122 
SCCF RECON,ioos:station:SCCF:12:1,2010-03-02T18:00:00Z,26.4966,-82.1479,2.45,33.56,1111122 
SCCF RECON,ioos:station:SCCF:12:1,2010-03-02T19:00:00Z,26.4966,-82.1479,2.43,33.37,1111122 
SCCF RECON,ioos:station:SCCF:12:1,2010-03-02T20:00:00Z,26.4966,-82.1479,2.379,33.29,1111122 
SCCF RECON,ioos:station:SCCF:12:1,2010-03-02T21:00:00Z,26.4966,-82.1479,2.27,32.99,1111122 
SCCF RECON,ioos:station:SCCF:12:1,2010-03-02T22:00:00Z,26.4966,-82.1479,2.15,33.0,1111122 
SCCF RECON,ioos:station:SCCF:12:1,2010-03-02T23:00:00Z,26.4966,-82.1479,2.027,33.03,1111122 
SCCF RECON,ioos:station:SCCF:12:1,2010-03-03T00:00:00Z,26.4966,-82.1479,1.914,33.08,1111122 
SCCF RECON,ioos:station:SCCF:12:1,2010-03-03T01:00:00Z,26.4966,-82.1479,1.815,33.44,1111122 
SCCF RECON,ioos:station:SCCF:12:1,2010-03-03T02:00:00Z,26.4966,-82.1479,1.741,33.63,1111122 
SCCF RECON,ioos:station:SCCF:12:1,2010-03-03T03:00:00Z,26.4966,-82.1479,1.734,33.56,1111122 
SCCF RECON,ioos:station:SCCF:12:1,2010-03-03T04:00:00Z,26.4966,-82.1479,1.82,33.54,1111122 
SCCF RECON,ioos:station:SCCF:12:1,2010-03-03T05:00:00Z,26.4966,-82.1479,1.952,33.56,1111122 
SCCF RECON,ioos:station:SCCF:12:1,2010-03-03T06:00:00Z,26.4966,-82.1479,2.048,33.56,1111122 
SCCF RECON,ioos:station:SCCF:12:1,2010-03-03T07:00:00Z,26.4966,-82.1479,2.133,33.48,1111122 
SCCF RECON,ioos:station:SCCF:12:1,2010-03-03T08:00:00Z,26.4966,-82.1479,2.189,33.5,1111122 
SCCF RECON,ioos:station:SCCF:12:1,2010-03-03T09:00:00Z,26.4966,-82.1479,2.162,33.52,1111122 
SCCF RECON,ioos:station:SCCF:12:1,2010-03-03T10:00:00Z,26.4966,-82.1479,2.061,33.51,1111122 
SCCF RECON,ioos:station:SCCF:12:1,2010-03-03T11:00:00Z,26.4966,-82.1479,1.949,33.55,1111122 
SCCF RECON,ioos:station:SCCF:12:1,2010-03-03T12:00:00Z,26.4966,-82.1479,1.839,33.53,1111122 
SCCF RECON,ioos:station:SCCF:12:1,2010-03-03T13:00:00Z,26.4966,-82.1479,1.753,33.56,1111122 
SCCF RECON,ioos:station:SCCF:12:1,2010-03-03T14:00:00Z,26.4966,-82.1479,1.705,33.66,1111122 
SCCF RECON,ioos:station:SCCF:12:1,2010-03-03T15:00:00Z,26.4966,-82.1479,1.724,33.54,1111122 
SCCF RECON,ioos:station:SCCF:12:1,2010-03-03T16:00:00Z,26.4966,-82.1479,1.83,33.55,1111122 
SCCF RECON,ioos:station:SCCF:12:1,2010-03-03T17:00:00Z,26.4966,-82.1479,1.969,33.58,1111122 
SCCF RECON,ioos:station:SCCF:12:1,2010-03-03T18:00:00Z,26.4966,-82.1479,2.095,33.7,1111122 
SCCF RECON,ioos:station:SCCF:12:1,2010-03-03T19:00:00Z,26.4966,-82.1479,2.167,33.74,1111122 
SCCF RECON,ioos:station:SCCF:12:1,2010-03-03T20:00:00Z,26.4966,-82.1479,2.189,33.79,1111122 
SCCF RECON,ioos:station:SCCF:12:1,2010-03-03T21:00:00Z,26.4966,-82.1479,2.135,33.8,1111122 
SCCF RECON,ioos:station:SCCF:12:1,2010-03-03T22:00:00Z,26.4966,-82.1479,2.031,33.84,1111122 
SCCF RECON,ioos:station:SCCF:12:1,2010-03-03T23:00:00Z,26.4966,-82.1479,1.915,33.84,1111122 
SCCF RECON,ioos:station:SCCF:12:1,2010-03-04T00:00:00Z,26.4966,-82.1479,1.821,33.84,1111122 
SCCF RECON,ioos:station:SCCF:12:1,2010-03-04T01:00:00Z,26.4966,-82.1479,1.734,33.85,1111122 
SCCF RECON,ioos:station:SCCF:12:1,2010-03-04T02:00:00Z,26.4966,-82.1479,1.645,33.76,1111122 
SCCF RECON,ioos:station:SCCF:12:1,2010-03-04T03:00:00Z,26.4966,-82.1479,1.582,33.67,1111122 
SCCF RECON,ioos:station:SCCF:12:1,2010-03-04T04:00:00Z,26.4966,-82.1479,1.579,33.64,1111122 
SCCF RECON,ioos:station:SCCF:12:1,2010-03-04T05:00:00Z,26.4966,-82.1479,1.674,33.69,1111122 
SCCF RECON,ioos:station:SCCF:12:1,2010-03-04T06:00:00Z,26.4966,-82.1479,1.839,33.5,1111122 
SCCF RECON,ioos:station:SCCF:12:1,2010-03-04T07:00:00Z,26.4966,-82.1479,1.983,33.4,1111122 
SCCF RECON,ioos:station:SCCF:12:1,2010-03-04T08:00:00Z,26.4966,-82.1479,2.086,33.53,1111122 
SCCF RECON,ioos:station:SCCF:12:1,2010-03-04T09:00:00Z,26.4966,-82.1479,2.127,33.65,1111122 
SCCF RECON,ioos:station:SCCF:12:1,2010-03-04T10:00:00Z,26.4966,-82.1479,2.092,33.88,1111122 
SCCF RECON,ioos:station:SCCF:12:1,2010-03-04T11:00:00Z,26.4966,-82.1479,2.014,33.84,1111122 
SCCF RECON,ioos:station:SCCF:12:1,2010-03-04T12:00:00Z,26.4966,-82.1479,1.926,33.8,1111122 
SCCF RECON,ioos:station:SCCF:12:1,2010-03-04T13:00:00Z,26.4966,-82.1479,1.878,33.75,1111122 
SCCF RECON,ioos:station:SCCF:12:1,2010-03-04T14:00:00Z,26.4966,-82.1479,1.883,33.61,1111122 
SCCF RECON,ioos:station:SCCF:12:1,2010-03-04T15:00:00Z,26.4966,-82.1479,1.85,33.63,1111122 
SCCF RECON,ioos:station:SCCF:12:1,2010-03-04T16:00:00Z,26.4966,-82.1479,1.871,33.61,1111122 
SCCF RECON,ioos:station:SCCF:12:1,2010-03-04T17:00:00Z,26.4966,-82.1479,1.952,33.8,1111122 
SCCF RECON,ioos:station:SCCF:12:1,2010-03-04T18:00:00Z,26.4966,-82.1479,2.079,33.53,1111122 
SCCF RECON,ioos:station:SCCF:12:1,2010-03-04T19:00:00Z,26.4966,-82.1479,2.179,33.49,1111122 
SCCF RECON,ioos:station:SCCF:12:1,2010-03-04T20:00:00Z,26.4966,-82.1479,2.224,33.56,1111122 
SCCF RECON,ioos:station:SCCF:12:1,2010-03-04T21:00:00Z,26.4966,-82.1479,2.19,33.62,1111122 
SCCF RECON,ioos:station:SCCF:12:1,2010-03-04T22:00:00Z,26.4966,-82.1479,2.105,33.61,1111122 
SCCF RECON,ioos:station:SCCF:12:1,2010-03-04T23:00:00Z,26.4966,-82.1479,2.002,33.71,1111122 
SCCF RECON,ioos:station:SCCF:12:1,2010-03-05T00:00:00Z,26.4966,-82.1479,1.898,33.78,1111122 
SCCF RECON,ioos:station:SCCF:12:1,2010-03-05T01:00:00Z,26.4966,-82.1479,1.792,33.81,1111122 
SCCF RECON,ioos:station:SCCF:12:1,2010-03-05T02:00:00Z,26.4966,-82.1479,1.694,33.92,1111122 
SCCF RECON,ioos:station:SCCF:12:1,2010-03-05T03:00:00Z,26.4966,-82.1479,1.6,33.85,1111122 
SCCF RECON,ioos:station:SCCF:12:1,2010-03-05T04:00:00Z,26.4966,-82.1479,1.548,33.65,1111122 
SCCF RECON,ioos:station:SCCF:12:1,2010-03-05T05:00:00Z,26.4966,-82.1479,1.567,33.58,1111122 
SCCF RECON,ioos:station:SCCF:12:1,2010-03-05T06:00:00Z,26.4966,-82.1479,1.675,33.51,1111122 
SCCF RECON,ioos:station:SCCF:12:1,2010-03-05T07:00:00Z,26.4966,-82.1479,1.793,33.4,1111122 
SCCF RECON,ioos:station:SCCF:12:1,2010-03-05T08:00:00Z,26.4966,-82.1479,1.89,33.39,1111122 
SCCF RECON,ioos:station:SCCF:12:1,2010-03-05T09:00:00Z,26.4966,-82.1479,1.959,33.39,1111122 
SCCF RECON,ioos:station:SCCF:12:1,2010-03-05T10:00:00Z,26.4966,-82.1479,1.961,33.48,1111122 
SCCF RECON,ioos:station:SCCF:12:1,2010-03-05T11:00:00Z,26.4966,-82.1479,1.942,33.69,1111122 
SCCF RECON,ioos:station:SCCF:12:1,2010-03-05T12:00:00Z,26.4966,-82.1479,1.894,33.58,1111122 
SCCF RECON,ioos:station:SCCF:12:1,2010-03-05T13:00:00Z,26.4966,-82.1479,1.848,33.6,1111122 
SCCF RECON,ioos:station:SCCF:12:1,2010-03-05T14:00:00Z,26.4966,-82.1479,1.845,33.61,1111122 
SCCF RECON,ioos:station:SCCF:12:1,2010-03-05T15:00:00Z,26.4966,-82.1479,1.88,33.6,1111122 
SCCF RECON,ioos:station:SCCF:12:1,2010-03-05T16:00:00Z,26.4966,-82.1479,1.93,33.67,1111122 
SCCF RECON,ioos:station:SCCF:12:1,2010-03-05T17:00:00Z,26.4966,-82.1479,1.979,33.54,1111122 
SCCF RECON,ioos:station:SCCF:12:1,2010-03-05T18:00:00Z,26.4966,-82.1479,2.06,33.64,1111122 
SCCF RECON,ioos:station:SCCF:12:1,2010-03-05T19:00:00Z,26.4966,-82.1479,2.158,33.71,1111122 
SCCF RECON,ioos:station:SCCF:12:1,2010-03-05T20:00:00Z,26.4966,-82.1479,2.236,33.68,1111122 
SCCF RECON,ioos:station:SCCF:12:1,2010-03-05T21:00:00Z,26.4966,-82.1479,2.257,33.66,1111122 
SCCF RECON,ioos:station:SCCF:12:1,2010-03-05T22:00:00Z,26.4966,-82.1479,2.2,33.69,1111122 
SCCF RECON,ioos:station:SCCF:12:1,2010-03-05T23:00:00Z,26.4966,-82.1479,2.104,33.71,1111122 
SCCF RECON,ioos:station:SCCF:12:1,2010-03-06T00:00:00Z,26.4966,-82.1479,2.011,33.68,1111122 
SCCF RECON,ioos:station:SCCF:12:1,2010-03-06T01:00:00Z,26.4966,-82.1479,1.928,33.72,1111122 
SCCF RECON,ioos:station:SCCF:12:1,2010-03-06T02:00:00Z,26.4966,-82.1479,1.842,33.6,1111122 
SCCF RECON,ioos:station:SCCF:12:1,2010-03-06T03:00:00Z,26.4966,-82.1479,1.756,33.69,1111122 
SCCF RECON,ioos:station:SCCF:12:1,2010-03-06T04:00:00Z,26.4966,-82.1479,1.682,33.68,1111122 
SCCF RECON,ioos:station:SCCF:12:1,2010-03-06T05:00:00Z,26.4966,-82.1479,1.619,33.7,1111122 
SCCF RECON,ioos:station:SCCF:12:1,2010-03-06T06:00:00Z,26.4966,-82.1479,1.596,33.6,1111122 
SCCF RECON,ioos:station:SCCF:12:1,2010-03-06T07:00:00Z,26.4966,-82.1479,1.656,33.64,1111122 
SCCF RECON,ioos:station:SCCF:12:1,2010-03-06T08:00:00Z,26.4966,-82.1479,1.744,33.66,1111122 
SCCF RECON,ioos:station:SCCF:12:1,2010-03-06T09:00:00Z,26.4966,-82.1479,1.796,33.74,1111122 
SCCF RECON,ioos:station:SCCF:12:1,2010-03-06T10:00:00Z,26.4966,-82.1479,1.813,33.67,1111122 
SCCF RECON,ioos:station:SCCF:12:1,2010-03-06T11:00:00Z,26.4966,-82.1479,1.827,33.61,1111122 
SCCF RECON,ioos:station:SCCF:12:1,2010-03-06T12:00:00Z,26.4966,-82.1479,1.838,33.59,1111122 
SCCF RECON,ioos:station:SCCF:12:1,2010-03-06T13:00:00Z,26.4966,-82.1479,1.83,33.56,1111122 
SCCF RECON,ioos:station:SCCF:12:1,2010-03-06T14:00:00Z,26.4966,-82.1479,1.817,33.46,1111122 
SCCF RECON,ioos:station:SCCF:12:1,2010-03-06T15:00:00Z,26.4966,-82.1479,1.83,33.42,1111122 
SCCF RECON,ioos:station:SCCF:12:1,2010-03-06T16:00:00Z,26.4966,-82.1479,1.869,33.64,1111122 
SCCF RECON,ioos:station:SCCF:12:1,2010-03-06T17:00:00Z,26.4966,-82.1479,1.918,33.61,1111122 
SCCF RECON,ioos:station:SCCF:12:1,2010-03-06T18:00:00Z,26.4966,-82.1479,1.989,33.71,1111122 
SCCF RECON,ioos:station:SCCF:12:1,2010-03-06T19:00:00Z,26.4966,-82.1479,2.071,33.84,1111122 
SCCF RECON,ioos:station:SCCF:12:1,2010-03-06T20:00:00Z,26.4966,-82.1479,2.152,33.79,1111122 
SCCF RECON,ioos:station:SCCF:12:1,2010-03-06T21:00:00Z,26.4966,-82.1479,2.217,33.8,1111122 
SCCF RECON,ioos:station:SCCF:12:1,2010-03-06T22:00:00Z,26.4966,-82.1479,2.227,33.81,1111122 
SCCF RECON,ioos:station:SCCF:12:1,2010-03-06T23:00:00Z,26.4966,-82.1479,2.178,33.8,1111122 
SCCF RECON,ioos:station:SCCF:12:1,2010-03-07T00:00:00Z,26.4966,-82.1479,2.103,33.8,1111122 
SCCF RECON,ioos:station:SCCF:12:1,2010-03-07T01:00:00Z,26.4966,-82.1479,2.023,33.75,1111122 
SCCF RECON,ioos:station:SCCF:12:1,2010-03-07T02:00:00Z,26.4966,-82.1479,1.945,33.73,1111122 
SCCF RECON,ioos:station:SCCF:12:1,2010-03-07T03:00:00Z,26.4966,-82.1479,1.858,33.84,1111122 
SCCF RECON,ioos:station:SCCF:12:1,2010-03-07T04:00:00Z,26.4966,-82.1479,1.767,33.85,1111122 
SCCF RECON,ioos:station:SCCF:12:1,2010-03-07T05:00:00Z,26.4966,-82.1479,1.675,33.87,1111122 
SCCF RECON,ioos:station:SCCF:12:1,2010-03-07T06:00:00Z,26.4966,-82.1479,1.608,33.84,1111122 
SCCF RECON,ioos:station:SCCF:12:1,2010-03-07T07:00:00Z,26.4966,-82.1479,1.586,33.75,1111122 
SCCF RECON,ioos:station:SCCF:12:1,2010-03-07T08:00:00Z,26.4966,-82.1479,1.621,33.58,1111122 
SCCF RECON,ioos:station:SCCF:12:1,2010-03-07T09:00:00Z,26.4966,-82.1479,1.7,33.45,1111122 
SCCF RECON,ioos:station:SCCF:12:1,2010-03-07T10:00:00Z,26.4966,-82.1479,1.778,33.44,1111122 
SCCF RECON,ioos:station:SCCF:12:1,2010-03-07T11:00:00Z,26.4966,-82.1479,1.841,33.44,1111122 
SCCF RECON,ioos:station:SCCF:12:1,2010-03-07T12:00:00Z,26.4966,-82.1479,1.9,33.46,1111122 
SCCF RECON,ioos:station:SCCF:12:1,2010-03-07T13:00:00Z,26.4966,-82.1479,1.941,33.49,1111122 
SCCF RECON,ioos:station:SCCF:12:1,2010-03-07T14:00:00Z,26.4966,-82.1479,1.952,33.6,1111122 
SCCF RECON,ioos:station:SCCF:12:1,2010-03-07T15:00:00Z,26.4966,-82.1479,1.938,33.59,1111122 
SCCF RECON,ioos:station:SCCF:12:1,2010-03-07T16:00:00Z,26.4966,-82.1479,1.946,33.56,1111122 
SCCF RECON,ioos:station:SCCF:12:1,2010-03-07T17:00:00Z,26.4966,-82.1479,1.969,33.53,1111122 
SCCF RECON,ioos:station:SCCF:12:1,2010-03-07T18:00:00Z,26.4966,-82.1479,2.02,33.58,1111122 
SCCF RECON,ioos:station:SCCF:12:1,2010-03-07T19:00:00Z,26.4966,-82.1479,2.092,33.56,1111122 
SCCF RECON,ioos:station:SCCF:12:1,2010-03-07T20:00:00Z,26.4966,-82.1479,2.159,33.55,1111122 
SCCF RECON,ioos:station:SCCF:12:1,2010-03-07T21:00:00Z,26.4966,-82.1479,2.213,33.58,1111122 
SCCF RECON,ioos:station:SCCF:12:1,2010-03-07T22:00:00Z,26.4966,-82.1479,2.23,33.64,1111122 
SCCF RECON,ioos:station:SCCF:12:1,2010-03-07T23:00:00Z,26.4966,-82.1479,2.219,33.66,1111122 
SCCF RECON,ioos:station:SCCF:12:1,2010-03-08T00:00:00Z,26.4966,-82.1479,2.179,33.67,1111122 
SCCF RECON,ioos:station:SCCF:12:1,2010-03-08T01:00:00Z,26.4966,-82.1479,2.106,33.68,1111122 
SCCF RECON,ioos:station:SCCF:12:1,2010-03-08T02:00:00Z,26.4966,-82.1479,2.034,33.67,1111122 
SCCF RECON,ioos:station:SCCF:12:1,2010-03-08T03:00:00Z,26.4966,-82.1479,1.955,33.65,1111122 
SCCF RECON,ioos:station:SCCF:12:1,2010-03-08T04:00:00Z,26.4966,-82.1479,1.882,33.62,1111122 
SCCF RECON,ioos:station:SCCF:12:1,2010-03-08T05:00:00Z,26.4966,-82.1479,1.812,33.58,1111122 
SCCF RECON,ioos:station:SCCF:12:1,2010-03-08T06:00:00Z,26.4966,-82.1479,1.733,33.63,1111122 
SCCF RECON,ioos:station:SCCF:12:1,2010-03-08T07:00:00Z,26.4966,-82.1479,1.662,33.64,1111122 
SCCF RECON,ioos:station:SCCF:12:1,2010-03-08T08:00:00Z,26.4966,-82.1479,1.636,33.55,1111122 
SCCF RECON,ioos:station:SCCF:12:1,2010-03-08T09:00:00Z,26.4966,-82.1479,1.658,33.67,1111122 
SCCF RECON,ioos:station:SCCF:12:1,2010-03-08T10:00:00Z,26.4966,-82.1479,1.73,33.51,1111122 
SCCF RECON,ioos:station:SCCF:12:1,2010-03-08T11:00:00Z,26.4966,-82.1479,1.811,33.42,1111122 
SCCF RECON,ioos:station:SCCF:12:1,2010-03-08T12:00:00Z,26.4966,-82.1479,1.9,33.41,1111122 
SCCF RECON,ioos:station:SCCF:12:1,2010-03-08T13:00:00Z,26.4966,-82.1479,1.99,33.49,1111122 
SCCF RECON,ioos:station:SCCF:12:1,2010-03-08T14:00:00Z,26.4966,-82.1479,2.05,33.74,1111122 
SCCF RECON,ioos:station:SCCF:12:1,2010-03-08T15:00:00Z,26.4966,-82.1479,2.08,33.74,1111122 
SCCF RECON,ioos:station:SCCF:12:1,2010-03-08T16:00:00Z,26.4966,-82.1479,2.08,33.67,1111122 
SCCF RECON,ioos:station:SCCF:12:1,2010-03-08T17:00:00Z,26.4966,-82.1479,2.058,33.59,1111122 
SCCF RECON,ioos:station:SCCF:12:1,2010-03-08T18:00:00Z,26.4966,-82.1479,2.08,33.58,1111122 
SCCF RECON,ioos:station:SCCF:12:1,2010-03-08T19:00:00Z,26.4966,-82.1479,2.101,33.58,1111122 
SCCF RECON,ioos:station:SCCF:12:1,2010-03-08T20:00:00Z,26.4966,-82.1479,2.14,33.61,1111122 
SCCF RECON,ioos:station:SCCF:12:1,2010-03-08T21:00:00Z,26.4966,-82.1479,2.194,33.57,1111122 
SCCF RECON,ioos:station:SCCF:12:1,2010-03-08T22:00:00Z,26.4966,-82.1479,2.24,33.69,1111122 
SCCF RECON,ioos:station:SCCF:12:1,2010-03-08T23:00:00Z,26.4966,-82.1479,2.25,33.63,1111122 
SCCF RECON,ioos:station:SCCF:12:1,2010-03-09T00:00:00Z,26.4966,-82.1479,2.22,33.65,1111122 
SCCF RECON,ioos:station:SCCF:12:1,2010-03-09T01:00:00Z,26.4966,-82.1479,2.19,33.67,1111122 
SCCF RECON,ioos:station:SCCF:12:1,2010-03-09T02:00:00Z,26.4966,-82.1479,2.143,33.61,1111122 
SCCF RECON,ioos:station:SCCF:12:1,2010-03-09T03:00:00Z,26.4966,-82.1479,2.099,33.62,1111122 
SCCF RECON,ioos:station:SCCF:12:1,2010-03-09T04:00:00Z,26.4966,-82.1479,2.028,33.63,1111122 
SCCF RECON,ioos:station:SCCF:12:1,2010-03-09T05:00:00Z,26.4966,-82.1479,1.93,33.63,1111122 
SCCF RECON,ioos:station:SCCF:12:1,2010-03-09T06:00:00Z,26.4966,-82.1479,1.84,33.63,1111122 
SCCF RECON,ioos:station:SCCF:12:1,2010-03-09T07:00:00Z,26.4966,-82.1479,1.76,33.65,1111122 
SCCF RECON,ioos:station:SCCF:12:1,2010-03-09T08:00:00Z,26.4966,-82.1479,1.69,33.65,1111122 
SCCF RECON,ioos:station:SCCF:12:1,2010-03-09T09:00:00Z,26.4966,-82.1479,1.67,33.62,1111122 
SCCF RECON,ioos:station:SCCF:12:1,2010-03-09T10:00:00Z,26.4966,-82.1479,1.74,33.53,1111122 
SCCF RECON,ioos:station:SCCF:12:1,2010-03-09T11:00:00Z,26.4966,-82.1479,1.835,33.52,1111122 
SCCF RECON,ioos:station:SCCF:12:1,2010-03-09T12:00:00Z,26.4966,-82.1479,1.92,33.52,1111122 
SCCF RECON,ioos:station:SCCF:12:1,2010-03-09T13:00:00Z,26.4966,-82.1479,2.0,33.51,1111122 
SCCF RECON,ioos:station:SCCF:12:1,2010-03-09T14:00:00Z,26.4966,-82.1479,2.06,33.57,1111122 
SCCF RECON,ioos:station:SCCF:12:1,2010-03-09T15:00:00Z,26.4966,-82.1479,2.107,33.65,1111122 
SCCF RECON,ioos:station:SCCF:12:1,2010-03-09T16:00:00Z,26.4966,-82.1479,2.121,33.69,1111122 
SCCF RECON,ioos:station:SCCF:12:1,2010-03-09T17:00:00Z,26.4966,-82.1479,2.19,33.67,1111122 
SCCF RECON,ioos:station:SCCF:12:1,2010-03-09T18:00:00Z,26.4966,-82.1479,2.18,33.65,1111122 
SCCF RECON,ioos:station:SCCF:12:1,2010-03-09T19:00:00Z,26.4966,-82.1479,2.156,33.63,1111122 
SCCF RECON,ioos:station:SCCF:12:1,2010-03-09T20:00:00Z,26.4966,-82.1479,2.13,33.6,1111122 
SCCF RECON,ioos:station:SCCF:12:1,2010-03-09T21:00:00Z,26.4966,-82.1479,2.131,33.59,1111122 
SCCF RECON,ioos:station:SCCF:12:1,2010-03-09T22:00:00Z,26.4966,-82.1479,2.155,33.64,1111122 
SCCF RECON,ioos:station:SCCF:12:1,2010-03-09T23:00:00Z,26.4966,-82.1479,2.21,33.67,1111122 
SCCF RECON,ioos:station:SCCF:12:1,2010-03-10T00:00:00Z,26.4966,-82.1479,2.28,33.65,1111122 
SCCF RECON,ioos:station:SCCF:12:1,2010-03-10T01:00:00Z,26.4966,-82.1479,2.31,33.6,1111122 
SCCF RECON,ioos:station:SCCF:12:1,2010-03-10T02:00:00Z,26.4966,-82.1479,2.28,33.62,1111122 
SCCF RECON,ioos:station:SCCF:12:1,2010-03-10T03:00:00Z,26.4966,-82.1479,2.23,33.62,1111122 
SCCF RECON,ioos:station:SCCF:12:1,2010-03-10T04:00:00Z,26.4966,-82.1479,2.156,33.63,1111122 
SCCF RECON,ioos:station:SCCF:12:1,2010-03-10T05:00:00Z,26.4966,-82.1479,2.069,33.64,1111122 
SCCF RECON,ioos:station:SCCF:12:1,2010-03-10T06:00:00Z,26.4966,-82.1479,1.96,33.64,1111122 
SCCF RECON,ioos:station:SCCF:12:1,2010-03-10T07:00:00Z,26.4966,-82.1479,1.87,33.65,1111122 
SCCF RECON,ioos:station:SCCF:12:1,2010-03-10T08:00:00Z,26.4966,-82.1479,1.772,33.66,1111122 
SCCF RECON,ioos:station:SCCF:12:1,2010-03-10T09:00:00Z,26.4966,-82.1479,1.7,33.65,1111122 
SCCF RECON,ioos:station:SCCF:12:1,2010-03-10T10:00:00Z,26.4966,-82.1479,1.68,33.65,1111122 
SCCF RECON,ioos:station:SCCF:12:1,2010-03-10T11:00:00Z,26.4966,-82.1479,1.74,33.63,1111122 
SCCF RECON,ioos:station:SCCF:12:1,2010-03-10T12:00:00Z,26.4966,-82.1479,1.86,33.57,1111122 
SCCF RECON,ioos:station:SCCF:12:1,2010-03-10T13:00:00Z,26.4966,-82.1479,1.97,33.55,1111122 
SCCF RECON,ioos:station:SCCF:12:1,2010-03-10T14:00:00Z,26.4966,-82.1479,2.05,33.59,1111122 
SCCF RECON,ioos:station:SCCF:12:1,2010-03-10T15:00:00Z,26.4966,-82.1479,2.102,33.61,1111122 
SCCF RECON,ioos:station:SCCF:12:1,2010-03-10T16:00:00Z,26.4966,-82.1479,2.14,33.64,1111122 
SCCF RECON,ioos:station:SCCF:12:1,2010-03-10T17:00:00Z,26.4966,-82.1479,2.156,33.59,1111122 
SCCF RECON,ioos:station:SCCF:12:1,2010-03-10T18:00:00Z,26.4966,-82.1479,2.145,33.48,1111122 
SCCF RECON,ioos:station:SCCF:12:1,2010-03-10T19:00:00Z,26.4966,-82.1479,2.11,33.35,1111122 
SCCF RECON,ioos:station:SCCF:12:1,2010-03-10T20:00:00Z,26.4966,-82.1479,2.084,33.26,1111122 
SCCF RECON,ioos:station:SCCF:12:1,2010-03-10T21:00:00Z,26.4966,-82.1479,2.06,33.19,1111122 
SCCF RECON,ioos:station:SCCF:12:1,2010-03-10T22:00:00Z,26.4966,-82.1479,2.087,33.14,1111122 
SCCF RECON,ioos:station:SCCF:12:1,2010-03-10T23:00:00Z,26.4966,-82.1479,2.139,33.19,1111122 
SCCF RECON,ioos:station:SCCF:12:1,2010-03-11T00:00:00Z,26.4966,-82.1479,2.188,33.2,1111122 
SCCF RECON,ioos:station:SCCF:12:1,2010-03-11T01:00:00Z,26.4966,-82.1479,2.244,33.16,1111122 
SCCF RECON,ioos:station:SCCF:12:1,2010-03-11T02:00:00Z,26.4966,-82.1479,2.32,33.14,1111122 
SCCF RECON,ioos:station:SCCF:12:1,2010-03-11T03:00:00Z,26.4966,-82.1479,2.31,33.14,1111122 
SCCF RECON,ioos:station:SCCF:12:1,2010-03-11T04:00:00Z,26.4966,-82.1479,2.26,33.2,1111122 
SCCF RECON,ioos:station:SCCF:12:1,2010-03-11T05:00:00Z,26.4966,-82.1479,2.178,33.06,1111122 
SCCF RECON,ioos:station:SCCF:12:1,2010-03-11T06:00:00Z,26.4966,-82.1479,2.08,32.91,1111122 
SCCF RECON,ioos:station:SCCF:12:1,2010-03-11T07:00:00Z,26.4966,-82.1479,1.961,32.91,1111122 
SCCF RECON,ioos:station:SCCF:12:1,2010-03-11T08:00:00Z,26.4966,-82.1479,1.848,32.95,1111122 
SCCF RECON,ioos:station:SCCF:12:1,2010-03-11T09:00:00Z,26.4966,-82.1479,1.759,32.87,1111122 
SCCF RECON,ioos:station:SCCF:12:1,2010-03-11T10:00:00Z,26.4966,-82.1479,1.692,32.93,1111122 
SCCF RECON,ioos:station:SCCF:12:1,2010-03-11T11:00:00Z,26.4966,-82.1479,1.694,33.0,1111122 
SCCF RECON,ioos:station:SCCF:12:1,2010-03-11T12:00:00Z,26.4966,-82.1479,1.763,32.98,1111122 
SCCF RECON,ioos:station:SCCF:12:1,2010-03-11T13:00:00Z,26.4966,-82.1479,1.88,32.86,1111122 
SCCF RECON,ioos:station:SCCF:12:1,2010-03-11T14:00:00Z,26.4966,-82.1479,1.997,32.91,1111122 
SCCF RECON,ioos:station:SCCF:12:1,2010-03-11T15:00:00Z,26.4966,-82.1479,2.102,32.83,1111122 
SCCF RECON,ioos:station:SCCF:12:1,2010-03-11T16:00:00Z,26.4966,-82.1479,2.172,32.47,1111122 
SCCF RECON,ioos:station:SCCF:12:1,2010-03-11T17:00:00Z,26.4966,-82.1479,2.212,32.68,1111122 